DW0479 Weather Reports


time (UTC)temp
C
wind
direction
speed
KPH
gust
KPH
rain 1hr
cm
rain 24hr
cm
rain mn
cm
humidity
%
barometer
mb
20260831212528 26 28 3.2 8.0 0.05 0.71 0.71 92 1016.4
20260831211527 25 21 3.2 11.3 0.08 0.71 0.71 92 1016.5
20260831210527 26 93 1.6 6.4 0.08 0.71 0.71 92 1016.5
20260831205514 25 93 3.2 9.7 0.10 0.71 0.71 92 1016.3
20260831204513 25 77 3.2 8.0 0.10 0.69 0.69 92 1016.4
20260831203509 25 21 1.6 4.8 0.10 0.66 0.66 92 1016.5
20260831202939 25 21 3.2 8.0 0.13 0.66 0.66 92 1016.5
20260831201500 25 119 4.8 12.9 0.13 0.64 0.64 92 1016.4
20260831201436 25 76 4.8 14.5 0.18 0.64 0.64 91 1016.6
20260831195456 25 68 4.8 11.3 0.25 0.61 0.61 91 1016.9
20260831194453 25 52 4.8 12.9 0.48 0.58 0.58 91 1017.2
20260831193452 25 34 6.4 16.1 0.56 0.56 0.56 91 1017.3
20260831192451 25 55 6.4 24.1 0.53 0.53 0.53 90 1017.1
20260831191444 25 75 8.0 16.1 0.51 0.51 0.51 89 1016.7
20260831190443 25 104 11.3 25.7 0.46 0.46 0.46 88 1016.4
20260831185441 25 36 9.7 24.1 0.36 0.36 0.36 87 1016.3
20260831184444 26 59 12.9 22.5 0.10 0.10 0.10 83 1016.4
20260831183439 29 81 11.3 24.1 0.00 0.00 0.00 75 1016.3
20260831182439 31 63 6.4 22.5 0.00 0.00 0.00 69 1016.2
20260831181434 32 64 6.4 11.3 0.00 0.00 0.00 63 1016.0
20260831180433 34 60 8.0 14.5 0.00 0.00 0.00 64 1016.0
20260831175911 35 25 4.8 12.9 0.00 0.00 0.00 62 1016.0
20260831174912 33 51 6.4 14.5 0.00 0.00 0.00 61 1016.2
20260831173434 33 10 8.0 14.5 0.00 0.00 0.00 66 1016.4
20260831172430 33 29 4.8 14.5 0.00 0.00 0.00 63 1016.6
20260831171432 33 346 4.8 14.5 0.00 0.00 0.00 63 1016.7
20260831170427 33 332 3.2 14.5 0.00 0.00 0.00 65 1016.8
20260831165425 31 308 3.2 8.0 0.00 0.00 0.00 67 1017.0
20260831164424 31 324 0.0 6.4 0.00 0.00 0.00 74 1017.1
20260831163424 32 24 3.2 8.0 0.00 0.00 0.00 67 1017.3
20260831162425 31 44 3.2 8.0 0.00 0.00 0.00 71 1017.4
20260831161424 32 5 3.2 12.9 0.00 0.00 0.00 74 1017.5
20260831160425 31 331 3.2 8.0 0.00 0.00 0.00 74 1017.6
20260831155426 32 343 3.2 12.9 0.00 0.00 0.00 74 1017.8
20260831154425 30 10 1.6 4.8 0.00 0.00 0.00 77 1017.8
20260831153422 30 19 3.2 11.3 0.00 0.00 0.00 77 1017.9
20260831152422 30 21 3.2 11.3 0.00 0.00 0.00 76 1017.9
20260831151422 30 15 4.8 14.5 0.00 0.00 0.00 77 1018.0
20260831150906 30 20 1.6 4.8 0.00 0.00 0.00 77 1017.9
20260831145423 29 28 1.6 6.4 0.00 0.00 0.00 78 1017.8
20260831144414 30 29 1.6 8.0 0.00 0.00 0.00 76 1017.7
20260831143412 30 27 3.2 8.0 0.00 0.00 0.00 78 1017.7
20260831142412 30 24 1.6 6.4 0.00 0.00 0.00 82 1017.7
20260831141412 29 27 3.2 6.4 0.00 0.00 0.00 84 1017.7
20260831140413 28 351 3.2 6.4 0.00 0.00 0.00 84 1017.8
20260831135410 28 10 1.6 9.7 0.00 0.00 0.00 89 1017.8
20260831134410 27 15 1.6 6.4 0.00 0.00 0.00 91 1017.7
20260831133410 27 10 3.2 6.4 0.00 0.00 0.00 93 1017.6
20260831132816 26 19 1.6 6.4 0.00 0.00 0.00 94 1017.3
20260831132453 26 5 1.6 6.4 0.00 0.00 0.00 94 1017.5
20260831130408 26 337 1.6 8.0 0.00 0.00 0.00 95 1017.3
20260831125409 25 350 0.0 4.8 0.00 0.00 0.00 94 1017.3
20260831124407 25 350 0.0 4.8 0.00 0.00 0.00 94 1017.3
20260831123411 25 350 3.2 6.4 0.00 0.00 0.00 95 1017.3
20260831122402 25 348 1.6 4.8 0.00 0.00 0.00 95 1017.2
20260831121354 25 350 3.2 6.4 0.00 0.00 0.00 95 1017.1
20260831120348 25 341 0.0 0.0 0.00 0.00 0.00 95 1017.0
20260831115345 24 342 0.0 0.0 0.00 0.00 0.00 95 1016.8
20260831114346 24 342 0.0 0.0 0.00 0.00 0.00 95 1016.7
20260831113344 23 341 0.0 0.0 0.00 0.00 0.00 94 1016.6
20260831112341 23 341 0.0 0.0 0.00 0.00 0.00 95 1016.4
20260831111337 23 341 0.0 0.0 0.00 0.00 0.00 94 1016.4
20260831110333 23 342 0.0 0.0 0.00 0.00 0.00 94 1016.2
20260831105334 23 342 0.0 0.0 0.00 0.00 0.00 94 1015.9
20260831104336 23 342 0.0 0.0 0.00 0.00 0.00 95 1015.8
20260831103333 23 342 0.0 0.0 0.00 0.00 0.00 94 1015.9
20260831102333 23 342 0.0 0.0 0.00 0.00 0.00 94 1015.8
20260831101333 23 342 0.0 0.0 0.00 0.00 0.00 94 1015.7
20260831100814 23 342 0.0 0.0 0.00 0.00 0.00 94 1015.7
20260831095319 23 342 0.0 0.0 0.00 0.00 0.00 94 1015.6
20260831094320 23 342 0.0 0.0 0.00 0.00 0.00 94 1015.6
20260831093319 23 341 0.0 0.0 0.00 0.00 0.00 94 1015.6
20260831092322 23 342 0.0 0.0 0.00 0.00 0.00 94 1015.6
20260831091321 23 342 0.0 0.0 0.00 0.00 0.00 94 1015.6
20260831090317 23 342 0.0 4.8 0.00 0.00 0.00 94 1015.6
20260831085319 23 341 0.0 3.2 0.00 0.00 0.00 94 1015.7
20260831084318 23 342 0.0 0.0 0.00 0.00 0.00 94 1015.7
20260831083318 23 342 0.0 3.2 0.00 0.00 0.00 94 1015.7
20260831082315 23 341 0.0 0.0 0.00 0.00 0.00 94 1015.7
20260831081757 23 342 0.0 0.0 0.00 0.00 0.00 94 1015.8
20260831080753 23 342 0.0 0.0 0.00 0.00 0.00 94 1015.8
20260831075754 23 342 0.0 3.2 0.00 0.03 0.00 94 1015.9
20260831074316 23 341 0.0 0.0 0.00 0.03 0.00 94 1016.0
20260831073313 23 342 0.0 0.0 0.00 0.03 0.00 93 1016.2
20260831072311 23 342 1.6 3.2 0.00 0.03 0.00 94 1016.2
20260831071312 23 342 0.0 3.2 0.00 0.03 0.00 94 1016.2
20260831070309 23 341 0.0 0.0 0.00 0.03 0.00 94 1016.0
20260831065311 23 342 0.0 0.0 0.00 0.03 0.00 94 1016.1
20260831064312 23 342 0.0 0.0 0.00 0.03 0.00 94 1016.2
20260831063309 23 342 0.0 0.0 0.00 0.03 0.00 94 1016.3
20260831062752 23 342 0.0 1.6 0.00 0.03 0.00 94 1016.4
20260831061310 23 342 0.0 0.0 0.00 0.03 0.00 94 1016.3
20260831060309 23 341 0.0 0.0 0.00 0.03 0.00 93 1016.4
20260831055310 23 341 0.0 1.6 0.00 0.03 0.00 94 1016.5
20260831054311 23 342 0.0 0.0 0.00 0.03 0.00 93 1016.6
20260831053311 23 342 0.0 0.0 0.00 0.03 0.00 94 1016.8
20260831052308 23 342 0.0 0.0 0.00 0.03 0.00 94 1016.9
20260831051308 23 341 0.0 0.0 0.00 0.03 0.00 93 1017.0
20260831050334 23 341 0.0 0.0 0.00 0.03 0.00 93 1017.2
20260831050310 23 342 0.0 1.6 0.00 0.03 0.00 93 1017.0
20260831045730 24 342 0.0 1.6 0.00 0.03 0.00 93 1017.1
20260831043749 24 342 0.0 0.0 0.00 0.03 0.00 93 1017.1
20260831042306 24 342 0.0 0.0 0.00 0.03 0.00 93 1017.1
20260831041300 24 341 0.0 0.0 0.00 0.03 0.00 93 1017.2
20260831040741 24 342 0.0 0.0 0.00 0.03 0.00 93 1017.2
20260831035738 24 342 0.0 0.0 0.00 0.03 0.03 93 1017.2
20260831034257 24 342 0.0 0.0 0.00 0.03 0.03 93 1017.2
20260831033253 24 342 0.0 0.0 0.00 0.03 0.03 93 1017.4
20260831032255 24 342 0.0 0.0 0.00 0.03 0.03 93 1017.4
20260831031733 25 341 0.0 0.0 0.00 0.03 0.03 93 1017.3
20260831030255 25 342 0.0 0.0 0.00 0.03 0.03 93 1017.3
20260831025254 25 341 0.0 0.0 0.00 0.03 0.03 92 1017.2
20260831024255 25 342 0.0 0.0 0.00 0.03 0.03 92 1017.3
20260831023254 25 341 0.0 1.6 0.00 0.03 0.03 92 1017.3
20260831022253 25 342 0.0 0.0 0.00 0.03 0.03 92 1017.3
20260831021252 25 342 0.0 0.0 0.00 0.03 0.03 92 1017.3
20260831020250 25 341 0.0 0.0 0.00 0.03 0.03 92 1017.5
20260831015249 25 342 0.0 0.0 0.00 0.03 0.03 91 1017.4
20260831014245 25 342 0.0 0.0 0.00 0.03 0.03 91 1017.4
20260831013239 25 342 0.0 1.6 0.00 0.03 0.03 91 1017.4
20260831012237 25 342 0.0 0.0 0.00 0.03 0.03 90 1017.3
20260831011229 25 341 0.0 0.0 0.00 0.03 0.03 90 1017.4
20260831010717 25 342 0.0 0.0 0.00 0.03 0.03 91 1017.4
20260831005223 25 341 0.0 0.0 0.00 0.03 0.03 90 1017.3
20260831004222 26 341 0.0 0.0 0.00 0.03 0.03 90 1017.0
20260831003218 26 341 0.0 1.6 0.00 0.03 0.03 89 1016.8
20260831002214 26 341 0.0 4.8 0.00 0.03 0.03 88 1016.8
20260831001212 26 342 3.2 4.8 0.00 0.03 0.03 88 1016.8
20260831000211 26 341 1.6 4.8 0.00 0.03 0.03 87 1016.7
20260830235651 26 291 0.0 4.8 0.00 0.03 0.03 87 1016.5
20260830234207 26 292 1.6 4.8 0.00 0.03 0.03 87 1016.4
20260830233158 26 263 1.6 4.8 0.00 0.03 0.03 88 1016.5
20260830232157 27 263 0.0 1.6 0.00 0.03 0.03 87 1016.4
20260830231154 27 263 0.0 3.2 0.00 0.03 0.03 86 1016.4
20260830230139 27 262 0.0 1.6 0.00 0.03 0.03 84 1016.4
20260830225130 27 262 0.0 0.0 0.00 0.05 0.03 84 1016.4
20260830224125 27 262 0.0 1.6 0.00 0.05 0.03 84 1016.3
20260830223609 27 262 0.0 1.6 0.00 0.08 0.03 85 1016.2
20260830222108 27 262 0.0 3.2 0.00 0.10 0.03 84 1016.2
20260830221059 27 162 1.6 8.0 0.00 0.10 0.03 83 1016.2
20260830220053 27 162 1.6 8.0 0.00 0.13 0.03 83 1016.2
20260830215053 27 162 3.2 8.0 0.00 0.15 0.03 82 1016.2
20260830214048 27 158 3.2 11.3 0.00 0.15 0.03 82 1016.1
20260830213049 27 205 1.6 6.4 0.00 0.15 0.03 83 1016.2